TimeEDT,TemperatureF,Dew PointF,Humidity,Sea Level PressureIn,VisibilityMPH,Wind Direction,Wind SpeedMPH,Gust SpeedMPH,PrecipitationIn,Events,Conditions,WindDirDegrees,DateUTC
12:54 AM,70.0,61.0,73,30.13,10.0,SSW,10.4,-,N/A,,Clear,210,2013-09-16 04:54:00
1:54 AM,69.1,60.1,73,30.12,10.0,SW,10.4,-,N/A,,Clear,220,2013-09-16 05:54:00
2:54 AM,70.0,61.0,73,30.11,10.0,SW,9.2,-,N/A,,Overcast,230,2013-09-16 06:54:00
3:54 AM,71.1,61.0,70,30.10,10.0,WSW,9.2,-,N/A,,Overcast,240,2013-09-16 07:54:00
4:54 AM,70.0,62.1,76,30.09,10.0,WSW,8.1,-,N/A,,Overcast,240,2013-09-16 08:54:00
5:54 AM,69.1,63.0,81,30.08,10.0,WSW,8.1,-,N/A,,Mostly Cloudy,240,2013-09-16 09:54:00
6:54 AM,69.1,63.0,81,30.09,10.0,WSW,6.9,-,N/A,,Clear,250,2013-09-16 10:54:00
7:54 AM,70.0,63.0,78,30.09,10.0,WSW,6.9,-,N/A,,Clear,240,2013-09-16 11:54:00
8:54 AM,73.9,64.9,73,30.09,10.0,West,8.1,-,N/A,,Partly Cloudy,270,2013-09-16 12:54:00
9:54 AM,75.9,66.9,74,30.09,10.0,West,10.4,-,N/A,,Clear,280,2013-09-16 13:54:00
10:54 AM,77.0,66.9,71,30.08,10.0,West,11.5,-,N/A,,Clear,270,2013-09-16 14:54:00
11:54 AM,79.0,66.0,64,30.07,10.0,West,11.5,-,N/A,,Partly Cloudy,260,2013-09-16 15:54:00
12:54 PM,81.0,64.0,56,30.06,10.0,NW,10.4,-,N/A,,Partly Cloudy,310,2013-09-16 16:54:00
1:54 PM,78.1,61.0,56,30.05,10.0,NW,11.5,-,N/A,,Mostly Cloudy,310,2013-09-16 17:54:00
2:54 PM,75.9,64.0,67,30.06,10.0,NNW,6.9,-,0.00,,Mostly Cloudy,340,2013-09-16 18:54:00
3:54 PM,73.9,63.0,68,30.06,10.0,NNW,8.1,-,0.00,,Overcast,340,2013-09-16 19:54:00
4:54 PM,73.0,63.0,71,30.07,10.0,North,6.9,-,N/A,,Overcast,360,2013-09-16 20:54:00
5:31 PM,70.0,62.1,76,30.09,10.0,NNE,11.5,-,N/A,,Overcast,20,2013-09-16 21:31:00
5:44 PM,69.1,60.1,73,30.10,10.0,NNE,15.0,19.6,N/A,,Overcast,20,2013-09-16 21:44:00
5:54 PM,69.1,59.0,70,30.09,10.0,NNE,10.4,-,N/A,,Overcast,20,2013-09-16 21:54:00
6:54 PM,68.0,59.0,73,30.11,10.0,North,5.8,-,N/A,,Mostly Cloudy,10,2013-09-16 22:54:00
7:54 PM,66.0,59.0,78,30.13,10.0,Calm,Calm,-,N/A,,Partly Cloudy,0,2013-09-16 23:54:00
8:54 PM,64.0,59.0,84,30.15,10.0,Calm,Calm,-,N/A,,Mostly Cloudy,0,2013-09-17 00:54:00
9:54 PM,61.0,57.9,90,30.17,10.0,NW,3.5,-,N/A,,Clear,320,2013-09-17 01:54:00
10:54 PM,60.1,57.0,90,30.18,8.0,NW,4.6,-,N/A,,Clear,320,2013-09-17 02:54:00
11:54 PM,61.0,57.0,87,30.19,10.0,NNW,5.8,-,N/A,,Clear,340,2013-09-17 03:54:00